TimeAKDT,TemperatureF,Dew PointF,Humidity,Sea Level PressureIn,VisibilityMPH,Wind Direction,Wind SpeedMPH,Gust SpeedMPH,PrecipitationIn,Events,Conditions,WindDirDegrees,DateUTC
12:53 AM,42.1,34.0,73,29.52,10.0,WNW,8.1,-,N/A,,Clear,290,2011-10-11 08:53:00
1:53 AM,42.1,33.1,70,29.52,10.0,NW,9.2,-,N/A,,Clear,310,2011-10-11 09:53:00
2:53 AM,41.0,32.0,70,29.52,10.0,NW,10.4,-,N/A,,Clear,310,2011-10-11 10:53:00
3:53 AM,41.0,32.0,70,29.51,10.0,NW,11.5,-,N/A,,Clear,320,2011-10-11 11:53:00
4:53 AM,39.9,30.9,70,29.51,10.0,WNW,6.9,-,N/A,,Clear,290,2011-10-11 12:53:00
5:53 AM,39.9,30.9,70,29.52,10.0,NW,5.8,-,N/A,,Clear,320,2011-10-11 13:53:00
6:53 AM,39.9,30.9,70,29.53,10.0,WNW,9.2,-,N/A,,Clear,300,2011-10-11 14:53:00
7:53 AM,39.0,30.0,70,29.54,10.0,NW,8.1,-,N/A,,Partly Cloudy,310,2011-10-11 15:53:00
8:53 AM,39.9,30.0,68,29.55,10.0,WNW,13.8,-,N/A,,Scattered Clouds,290,2011-10-11 16:53:00
9:53 AM,42.1,28.9,60,29.55,10.0,WNW,12.7,-,N/A,,Scattered Clouds,300,2011-10-11 17:53:00
10:53 AM,43.0,28.9,58,29.56,10.0,WNW,13.8,-,N/A,,Scattered Clouds,290,2011-10-11 18:53:00
11:53 AM,45.0,30.0,56,29.58,10.0,West,13.8,-,N/A,,Scattered Clouds,280,2011-10-11 19:53:00
12:53 PM,46.0,28.9,51,29.59,10.0,NW,10.4,-,N/A,,Scattered Clouds,310,2011-10-11 20:53:00
1:53 PM,46.4,30.2,53,29.59,10.0,West,13.8,-,N/A,,Scattered Clouds,270,2011-10-11 21:53:00
2:53 PM,46.0,28.9,51,29.60,10.0,WNW,13.8,19.6,N/A,,Mostly Cloudy,290,2011-10-11 22:53:00
3:53 PM,46.0,28.9,51,29.61,10.0,West,18.4,23.0,N/A,,Mostly Cloudy,270,2011-10-11 23:53:00
4:53 PM,46.0,28.9,51,29.61,10.0,WNW,10.4,17.3,N/A,,Mostly Cloudy,300,2011-10-12 00:53:00
5:53 PM,45.0,28.0,52,29.62,10.0,WNW,15.0,20.7,N/A,,Mostly Cloudy,300,2011-10-12 01:53:00
6:53 PM,41.0,27.0,57,29.65,10.0,SSW,5.8,-,N/A,,Mostly Cloudy,210,2011-10-12 02:53:00
7:53 PM,39.9,27.0,60,29.67,10.0,SW,8.1,-,N/A,,Mostly Cloudy,220,2011-10-12 03:53:00
8:53 PM,39.0,27.0,62,29.68,10.0,West,9.2,20.7,N/A,,Mostly Cloudy,270,2011-10-12 04:53:00
9:53 PM,39.9,25.0,55,29.71,10.0,WNW,12.7,24.2,N/A,,Scattered Clouds,290,2011-10-12 05:53:00
10:53 PM,39.9,26.1,58,29.72,10.0,WNW,17.3,25.3,N/A,,Scattered Clouds,290,2011-10-12 06:53:00
11:53 PM,39.9,26.1,58,29.74,10.0,West,11.5,-,N/A,,Scattered Clouds,280,2011-10-12 07:53:00